Location: Newark
(42.8481°N, 0.4872°E)
Time: 17:07:49
(UTC+00:00)

A-11 Canister half - Pass Details

Date: 04 November 2020
Orbit: 1525 x 1683 km, 47.3° (Epoch: 22 November)

Event Time Altitude Azimuth Distance (km) Brightness Sun altitude
Rises 11:40:28 0° 218° (SW) 4,857 12.3 31.6°
Reaches altitude 10° 11:43:44 10° 214° (SW) 3,852 12.1 31.6°
Maximum altitude 11:53:06 53° 141° (SE) 1,898 10.6 31.5°
Drops below altitude 10° 12:02:10 10° 68° (ENE) 3,745 10.9 31.4°
Sets 12:05:17 0° 64° (ENE) 4,714 11.3 31.3°
